Showing default

VINDLER 2.2, 68484

Orbit data source: Space-Track

VINDLER 2.2, 68484 is a payload satellite owned by Sierra Nevada (US) in SSO that was launched on Mon, 30 Mar 2026 UTC via an FALCON 9 launch vehicle from the Air Force Western Test Range (AFWTR). Payload-class satellites include a variety of spacecraft equipped with specific instruments for various scientific and technological missions. These include communications satellites like Starlink; space stations such as the ISS; scientific satellites like the Hubble; Earth observation satellites from companies like Planet Labs, Umbra, and HawkEye 360; GPS; miniature CubeSats for education and research; and military/defense satellites.

Loading next visibility...
Identifier
68484, 2026-067BW
Orbit
SSO
Country
Flag of USUS
Related business
Manufacturer
Muon Space
Mission
Operational spacecraft
Bus & Motor
MUON HALO, Unknown motor
Mass
~130 kg wet, ~130 kg dry
Launch date (UTC)
2026-03-30 (3 months ago)
Launch vehicle
FALCON 9
Launch site
Air Force Western Test Range (AFWTR)
Object type
Payload
Rocket body
Debris
Shape & HBR
Unknown shape, 1.2 m
Radar Cross Section
Large (>1 m²)

Expand to show TLE details & history
Last TLE update: 2 days ago

TLE from 2 days ago
0 VINDLER 2.2
1 68484U 26067BW  26171.41668980 -.00018853  00000-0 -15529-2 0  9991
2 68484  97.7666 130.3776 0002296 352.5135 327.4141 14.99078604  2948
Epoch: 2026-06-20T10:00Z
TLE epoch observation values (Epoch: 2026-06-20T10:00:01.998Z)
Latitude
-39.91672°
Longitude
78.25387°
Altitude
583.705 km
Speed
7.568 km/s
True Right ascension
09h 07m 34s
True Declination
-39° 44' 36"
Sunlit
Object was in daylight at epoch
Visualization orbit readout
Latitude
Unknown
Longitude
Unknown
Altitude
Unknown
Speed
Unknown
Apparent Right ascension
Unknown
Apparent Declination
Unknown
Sunlit
N/A
Visualization observer readout
Local Sidereal Time
13:46:25
Azimuth
Unknown
Elevation
Unknown
Doppler factor
Unknown
Orbital elements
Apogee altitude
568.346 km
Perigee altitude
565.157 km
Semi-major axis
6,944.888 km
Eccentricity
0.00023
Inclination
97.7666°
RAAN
130.3776°
Arg. of periapsis
352.5135°
True anomaly
327.39993°
Mean anomaly
327.4141°
Eccentric anomaly
327.40701°
Mean motion
3.75012 °/min
Orbital period
96 mins
BSTAR
-0.0015529
Loading maneuver chart data...
Computing Atmospheric mass density...
Loading historical data...
Loading historical data...
Loading historical data...
Loading historical data...
Loading historical data...
Loading historical data...
Loading historical data...

Documentation

Showing up to 5 results
|